This is the latest recevied weather packets stored in our database for station/object PA3BWK. If no packets are shown the sender has not sent any weather packets the latest 10 day(s).
| Time | Temp. | Humidity | Pressure | Rain* | Wind** | Luminosity | Snow |
|---|---|---|---|---|---|---|---|
| 1788024871 | 18.89° C | 88% | 1007 hPa | 1.02 mm | - | 9 W/m² | - |
| 1788024812 | 18.89° C | 88% | 1007.1 hPa | 1.02 mm | - | 9 W/m² | - |
| 1788024751 | 18.89° C | 88% | 1007.1 hPa | 1.02 mm | - | 11 W/m² | - |
| 1788024693 | 18.89° C | 88% | 1007.1 hPa | 1.02 mm | - | 11 W/m² | - |
| 1788024631 | 18.89° C | 88% | 1007.2 hPa | 1.02 mm | - | 11 W/m² | - |
| 1788024570 | 18.89° C | 88% | 1007.2 hPa | 1.02 mm | - | 9 W/m² | - |
| 1788024511 | 18.89° C | 88% | 1007.2 hPa | 1.02 mm | - | 9 W/m² | - |
| 1788024452 | 18.89° C | 87% | 1007.2 hPa | 1.02 mm | - | 11 W/m² | - |
| 1788024391 | 18.89° C | 87% | 1007.3 hPa | 1.02 mm | - | 12 W/m² | - |
| 1788024331 | 18.89° C | 87% | 1007.3 hPa | 0.76 mm | - | 12 W/m² | - |
| 1788024271 | 18.89° C | 87% | 1007.3 hPa | 0.76 mm | - | 14 W/m² | - |
| 1788024211 | 18.89° C | 87% | 1007.4 hPa | 0.76 mm | - | 12 W/m² | - |
| 1788024150 | 19.44° C | 87% | 1007.2 hPa | 0.76 mm | - | 12 W/m² | - |
| 1788024092 | 19.44° C | 87% | 1007.4 hPa | 0.51 mm | - | 12 W/m² | - |
| 1788024030 | 19.44° C | 87% | 1007.4 hPa | 0.51 mm | - | 11 W/m² | - |
| 1788023971 | 19.44° C | 87% | 1007.4 hPa | 0.51 mm | - | 11 W/m² | - |
| 1788023910 | 19.44° C | 87% | 1007.4 hPa | 0.51 mm | - | 11 W/m² | - |
| 1788023850 | 19.44° C | 87% | 1007.4 hPa | 0.51 mm | - | 9 W/m² | - |
| 1788023791 | 19.44° C | 87% | 1007.4 hPa | 0.51 mm | - | 9 W/m² | - |
| 1788023731 | 19.44° C | 87% | 1007.3 hPa | 0.51 mm | - | 12 W/m² | - |
| 1788023670 | 19.44° C | 87% | 1007.3 hPa | 0.51 mm | - | 9 W/m² | - |
| 1788023610 | 19.44° C | 87% | 1007.4 hPa | 0.51 mm | - | 11 W/m² | - |
| 1788023550 | 19.44° C | 87% | 1007.4 hPa | 0.51 mm | - | 14 W/m² | - |
| 1788023491 | 19.44° C | 87% | 1007.4 hPa | 0.51 mm | - | 16 W/m² | - |
| 1788023430 | 19.44° C | 87% | 1007.4 hPa | 0.51 mm | - | 16 W/m² | - |
* Rain latest hour (hover to see other rain measurements)
** Current wind speed in m/s (hover to see current wind gust speed)